SCP
0 1 1 0 0 0 0 0 0 0 0 0 0 0 0 0 0 0 0 0 0 0 0 0 0 0 0 0 0 0 0 0 0 0 0 0 0 0 0 0 0 0 0
1 1 1 0 0 0 0 0 0 0 0 0 0 0 0 0 0 0 0 0 0 0 0 0 0 0 0 0 0 0 0 0 0 0 0 0 0 0 0 0 0 0 0
1 1 0 0 0 0 0 0 0 0 0 0 0 0 0 0 0 0 0 0 0 0 0 0 0 0 0 0 0 0 0 0 0 0 0 0 0 0 0 0 0 0 0
1 1 0 0 0 0 0 0 0 0 0 0 0 0 0 0 0 0 0 0 0 0 0 0 0 0 0 0 0 0 0 0 0 0 0 0 0 0 0 0 0 0 0
1 1 0 0 0 0 0 0 0 0 0 0 0 0 0 0 0 0 0 0 0 0 0 0 0 0 0 0 0 0 0 0 0 0 0 0 0 0 0 0 0 0 0
0 0 0 0 0 0 0 0 0 0 0 0 0 0 0 0 0 0 0 0 0 0 0 0 0 0 0 0 0 0 0 0 0 0 0 0 0 0 0 0 0 0 0
0 0 0 0 0 0 0 0 0 0 0 0 0 0 0 0 0 0 0 0 0 0 0 0 0 0 0 0 0 0 0 0 0 0 0 0 0 0 0 0 0 0 0
0 0 0 0 0 0 0 0 0 0 0 0 0 0 0 0 0 0 0 0 0 0 0 0 0 0 0 0 0 0 0 0 0 0 0 0 0 0 0 0 0 0 0
0 0 0 0 0 0 0 0 0 0 0 0 0 0 0 0 0 0 0 0 0 0 0 0 0 0 0 0 0 0 0 0 0 0 0 0 0 0 0 0 0 0 0
0 0 0 0 0 0 0 0 0 0 0 0 0 0 0 0 0 0 0 0 0 0 0 0 0 0 0 0 0 0 0 0 0 0 0 0 0 0 0 0 0 0 0
0 0 0 0 0 0 0 0 0 0 0 0 0 0 0 0 0 0 0 0 0 0 0 0 0 0 0 0 0 0 0 0 0 0 0 0 0 0 0 0 0 0 0
0 0 0 0 0 0 0 0 0 0 0 0 0 0 0 0 0 0 0 0 0 0 0 0 0 0 0 0 0 0 0 0 0 0 0 0 0 0 0 0 0 0 0
0 0 0 0 0 0 0 0 0 0 0 0 0 0 0 0 0 0 0 0 0 0 0 0 0 0 0 0 0 0 0 0 0 0 0 0 0 0 0 0 0 0 0
0 0 0 0 0 0 0 0 0 0 0 0 0 0 0 0 0 0 0 0 0 0 0 0 0 0 0 0 0 0 0 0 0 0 0 0 0 0 0 0 0 0 0
0 0 0 0 0 0 0 0 0 0 0 0 0 0 0 0 0 0 0 0 0 0 0 0 0 0 0 0 0 0 0 0 0 0 0 0 0 0 0 0 0 0 0
0 0 0 0 0 0 0 0 0 0 0 0 0 0 0 0 0 0 0 0 0 0 0 0 0 0 0 0 0 0 0 0 0 0 0 0 0 0 0 0 0 0 0
0 0 0 0 0 0 0 0 0 0 0 0 0 0 0 0 0 0 0 0 0 0 0 0 0 0 0 0 0 0 0 0 0 0 0 0 0 0 0 0 0 0 0
0 0 0 0 0 0 0 0 0 0 0 0 0 0 0 0 0 0 0 0 0 0 0 0 0 0 0 0 0 0 0 0 0 0 0 0 0 0 0 0 0 0 0
0 0 0 0 0 0 0 0 0 0 0 0 0 0 0 0 0 0 0 0 0 0 0 0 0 0 0 0 0 0 0 0 0 0 0 0 0 0 0 0 0 0 0
0 0 0 0 0 0 0 0 0 0 0 0 0 0 0 0 0 0 0 0 0 0 0 0 0 0 0 0 0 0 0 0 0 0 0 0 0 0 0 0 0 0 0
0 0 0 0 0 0 0 0 0 0 0 0 0 0 0 0 0 0 0 0 0 0 0 0 0 0 0 0 0 0 0 0 0 0 0 0 0 0 0 0 0 0 0
0 0 0 0 0 0 0 0 0 0 0 0 0 0 0 0 0 0 0 0 0 0 0 0 0 0 0 0 0 0 0 0 0 0 0 0 0 0 0 0 0 0 0
0 0 0 0 0 0 0 0 0 0 0 0 0 0 0 0 0 0 0 0 0 0 0 0 0 0 0 0 0 0 0 0 0 0 0 0 0 0 0 0 0 0 0
0 0 0 0 0 0 0 0 0 0 0 0 0 0 0 0 0 0 0 0 0 0 0 0 0 0 0 0 0 0 0 0 0 0 0 0 0 0 0 0 0 0 0
0 0 0 0 0 0 0 0 0 0 0 0 0 0 0 0 0 0 0 0 0 0 0 0 0 0 0 0 0 0 0 0 0 0 0 0 0 0 0 0 0 0 0
0 0 0 0 0 0 0 0 0 0 0 0 0 0 0 0 0 0 0 0 0 0 0 0 0 0 0 0 0 0 0 0 0 0 0 0 0 0 0 0 0 0 0
Wind_Speed
9 9 8 8 7 7 6 7 6 5 6 6 6 6 6 5 5 5 5 4 5 5 4 5 6 4 3 3 3 4 4 4 5 5 3 3 4 5 5 4 4 4 5
9 9 9 8 7 7 8 8 7 7 7 7 6 6 6 6 6 6 6 6 6 6 6 6 7 5 5 4 4 5 5 6 6 7 4 3 5 5 5 5 5 4 4
9 9 8 8 9 9 9 8 8 8 7 7 7 7 7 7 7 7 7 7 7 7 7 7 7 6 7 5 6 6 5 5 6 6 6 3 4 3 4 4 5 4 5
9 10 10 11 11 10 9 8 8 8 8 8 8 9 8 8 8 7 7 7 8 8 8 8 8 8 9 8 6 7 6 6 6 6 6 5 5 4 4 4 4 3 4
9 10 12 10 8 8 8 8 8 8 10 9 8 8 8 7 8 8 8 8 8 9 8 8 9 11 12 10 7 7 7 6 6 6 6 5 5 4 5 3 4 4 4
9 11 9 7 8 8 9 8 8 9 8 8 9 9 9 9 11 13 11 9 9 9 9 9 9 11 13 14 14 13 11 9 8 7 7 8 8 7 5 5 4 4 4
8 8 7 7 8 9 9 8 9 10 8 9 10 10 11 12 14 14 15 10 10 10 10 9 9 9 11 10 11 13 13 15 14 10 10 11 9 8 6 6 6 6 6
5 5 5 6 7 6 6 9 9 7 8 9 10 10 10 12 14 16 15 12 10 11 11 11 11 11 10 10 10 10 10 11 11 11 11 12 11 9 8 8 7 6 7
3 4 4 5 6 6 8 9 8 7 8 9 7 10 11 12 14 16 15 9 9 12 12 12 12 13 14 14 11 11 11 11 11 14 15 14 13 12 9 5 5 5 7
2 2 1 2 4 5 6 6 5 6 8 8 8 9 10 12 13 15 15 8 10 11 10 11 15 16 15 14 12 11 12 12 9 8 9 10 11 11 11 10 8 8 7
3 4 4 2 1 3 3 3 4 4 5 6 8 8 9 12 13 15 15 10 11 11 10 10 10 16 18 18 15 12 15 12 8 8 7 7 7 7 8 8 9 9 9
5 5 5 4 4 3 2 3 3 3 4 6 6 8 7 8 11 13 16 17 15 12 11 10 10 15 18 18 14 14 16 12 8 7 7 8 8 8 8 8 10 11 11
6 6 5 5 4 3 3 3 3 2 3 4 5 6 7 6 7 13 15 16 18 14 12 15 15 15 14 13 16 16 13 9 8 8 9 10 9 9 7 6 7 9 11
5 5 4 4 5 4 3 2 2 3 3 4 5 6 7 6 6 6 7 8 11 12 12 13 16 15 13 11 10 10 10 9 9 10 10 9 7 7 7 7 6 6 6
4 4 4 4 4 4 4 3 4 4 5 5 5 6 7 8 9 11 9 8 7 8 7 6 7 7 8 9 8 9 8 8 9 9 9 9 8 8 8 7 6 6 6
3 4 3 3 4 4 4 6 6 7 10 11 11 10 8 12 15 16 16 16 15 12 7 8 9 9 10 10 10 9 9 9 10 9 9 9 9 8 8 7 7 7 8
2 3 3 4 4 5 5 6 8 8 10 11 13 13 13 15 16 17 17 15 14 10 8 9 10 10 10 9 9 9 9 9 8 9 9 9 9 8 8 8 7 7 8
4 5 5 4 5 5 6 6 7 8 9 9 10 13 15 16 16 16 15 10 8 6 8 10 10 9 9 9 9 9 9 8 8 8 9 9 9 8 8 8 8 9 9
4 4 4 5 5 6 6 7 7 9 9 9 9 10 13 14 14 13 9 6 8 9 9 9 9 9 8 8 8 8 8 8 8 8 8 9 8 8 8 9 8 10 10
4 9 8 6 6 7 7 8 8 9 9 10 10 11 10 10 10 10 7 7 8 9 9 9 9 9 8 8 7 7 8 8 8 8 8 8 8 8 9 10 9 9 9
5 7 10 7 6 7 8 8 9 9 10 10 10 11 14 11 11 12 10 9 9 9 9 8 8 8 8 7 7 8 9 8 7 7 7 7 7 8 8 8 8 9 8
4 5 6 6 7 7 8 9 9 9 11 12 11 11 14 10 10 10 9 9 9 8 8 7 7 6 6 6 7 7 7 7 7 7 7 7 7 7 7 7 8 8 8
5 6 7 7 7 9 9 8 9 10 10 11 11 11 10 9 9 9 10 9 8 7 6 5 5 5 5 5 5 5 6 6 6 6 6 6 6 6 7 8 9 9 9
5 6 7 7 8 8 9 9 9 10 10 11 11 10 10 10 9 10 10 8 7 6 5 4 4 4 5 3 2 3 4 4 4 4 7 6 6 6 7 8 8 10 10
5 6 7 7 8 8 9 9 9 10 10 10 10 10 10 10 10 9 9 8 8 6 7 5 4 4 4 4 3 2 2 3 3 4 4 5 7 8 8 9 8 9 9
6 7 7 7 7 8 8 9 9 10 10 10 10 10 10 10 9 9 9 8 8 7 7 6 6 7 6 5 5 5 3 3 3 4 4 5 7 7 8 7 9 9 9
Wind_Direction
197 197 196 197 194 188 192 200 200 200 199 202 205 207 212 216 211 207 222 224 227 238 235 229 238 231 229 223 211 211 215 212 245 266 251 265 274 283 298 299 293 291 290
198 193 199 196 188 192 203 206 200 203 205 207 207 211 218 220 215 214 227 227 226 237 241 236 244 238 233 231 221 222 223 218 233 265 269 261 259 270 278 288 291 291 287
190 192 196 196 196 203 208 207 203 206 210 210 208 215 221 222 221 222 226 232 232 236 238 237 243 237 241 236 229 232 234 231 225 247 266 258 262 267 277 280 281 284 287
187 192 200 205 205 208 208 206 207 208 210 212 214 219 223 224 225 227 228 234 239 241 239 238 240 235 238 239 237 236 235 237 233 242 259 262 261 261 256 266 279 272 284
188 199 211 210 205 205 206 209 210 211 217 216 218 224 226 226 229 227 228 234 239 246 246 242 241 239 238 235 234 235 231 235 238 244 255 260 260 254 251 247 264 279 277
195 209 210 201 201 208 213 213 213 217 219 217 221 225 228 231 230 224 222 232 235 240 247 248 247 249 248 245 242 237 227 230 239 242 252 254 259 256 253 245 251 263 275
205 215 209 204 209 214 214 213 219 221 219 222 227 227 233 235 232 231 229 229 234 238 241 246 250 247 239 245 249 250 244 236 230 234 247 251 255 249 242 247 239 238 248
214 225 219 212 222 221 216 223 226 221 219 226 230 230 235 241 234 234 234 234 238 239 239 239 243 249 243 236 244 250 250 247 238 236 240 246 247 247 238 246 254 254 255
223 237 228 218 226 223 226 232 229 221 226 226 227 227 232 243 236 233 231 234 239 243 241 238 237 245 244 231 236 246 254 257 247 238 235 241 243 242 233 233 235 239 259
351 335 314 230 230 236 241 243 235 228 237 238 240 237 236 245 241 232 226 230 240 246 244 240 234 236 240 228 228 235 246 253 251 247 239 242 245 247 233 226 232 241 253
24 37 36 25 306 266 262 254 249 246 251 251 252 251 246 248 252 242 228 225 236 243 245 244 239 229 232 231 224 229 236 240 243 241 247 250 249 247 242 232 226 230 240
46 45 36 27 16 6 339 308 283 266 268 270 269 272 263 254 250 250 238 229 231 240 245 246 242 231 227 228 225 229 232 233 238 238 243 248 249 249 246 240 234 232 237
44 36 22 13 7 359 352 335 327 308 283 282 281 282 282 274 262 254 253 247 239 239 247 246 243 237 230 231 231 228 225 224 223 231 240 246 247 249 248 245 242 238 243
38 20 10 5 353 348 342 327 317 307 299 297 294 290 289 285 279 273 266 263 256 248 250 251 247 244 237 236 235 229 223 220 220 231 240 247 247 243 241 238 244 238 244
26 9 359 352 343 337 332 311 301 279 270 277 281 280 288 289 282 280 280 278 270 262 264 256 245 236 233 231 230 230 224 219 223 230 235 241 241 240 243 234 232 230 233
10 349 338 331 325 322 319 315 297 284 290 285 271 268 274 270 278 283 280 274 270 266 250 248 243 237 234 232 229 227 224 222 223 224 227 231 235 236 241 234 225 228 238
339 322 317 318 316 314 312 310 311 310 300 293 288 285 278 281 283 283 281 279 274 255 236 242 241 237 234 231 229 227 229 225 217 217 223 226 227 231 234 236 231 230 238
326 319 316 305 306 306 305 303 301 303 307 305 300 294 292 289 287 285 285 285 274 243 240 244 243 240 236 233 230 230 231 227 218 218 222 224 223 225 229 233 232 233 238
325 315 311 307 307 305 304 303 301 299 298 299 301 301 298 297 293 287 281 265 267 263 252 250 249 244 240 237 235 231 230 227 222 217 220 222 220 220 227 232 234 235 236
323 324 327 317 314 313 312 310 309 306 304 304 303 303 307 306 303 300 287 273 268 266 261 254 250 244 240 238 236 232 230 227 223 221 222 223 221 220 227 231 232 234 235
322 322 327 323 315 314 314 312 310 307 305 304 302 301 301 299 296 295 292 284 276 274 270 261 252 245 238 234 231 229 228 226 223 223 224 225 222 222 226 231 235 237 239
321 318 319 317 317 317 315 311 309 308 308 308 307 306 302 297 295 293 291 290 287 279 272 265 260 253 242 233 227 225 226 226 226 226 227 228 226 226 228 231 235 238 239
327 326 325 322 321 317 316 316 315 313 311 311 312 313 312 308 303 303 301 298 295 292 285 272 264 260 253 240 229 224 228 232 231 227 227 231 231 231 232 234 237 240 239
335 332 329 327 326 324 322 320 319 319 319 318 318 317 318 318 316 315 315 313 311 310 310 303 292 289 287 274 245 233 233 235 236 235 234 237 239 239 238 239 240 240 243
340 336 332 330 327 325 322 322 321 321 320 319 320 321 320 320 321 321 322 323 324 325 327 326 325 324 322 321 314 295 261 247 249 250 243 241 243 243 244 245 244 244 243
343 338 333 330 327 326 325 324 322 322 321 323 323 323 325 326 327 329 331 331 334 336 336 336 338 339 334 330 330 329 315 288 266 251 245 243 244 245 244 244 246 245 248